Погода в Станке

Россия / Ивановская область     57°27′09″N   41°55′17″E
темп.,
°C
ветер,
м/с
пор.,
м/с
влажн.,
%
обл.,
%
осадки,
мм/ч
давл.,
гПа
погр.,
м
22 января, сб
сб2200:00−8юв51292100 0.2 1006597
03:00−8юв41193100 0.5 1007517
06:00−9вюв41093100 0.3 1009389
09:00−10вюв4109496 0.4 1011332
12:00−8вюв41093100 0.1 1013404
15:00−8вюв41094100 0.1 1014421
18:00−9в3995100 0.1 1016376
21:00−12всв379798 0.1 1018145
23 января, вс
вс2300:00−15всв259890 0.1 102190
03:00−18всв2210095 0.1 102236
06:00−19св11100100 0.1 102411
09:00−20св11100100 0.1 102710
12:00−11св019590 0.1 102892
15:00−11юз009745 0.1 103010
18:00−18ссз1110074 0.0 10339
21:00−20сз1110092 0.0 10359
24 января, пн
пн2400:00−21ю0010095 0.0 10379
03:00−22з0010088 0.0 10389
06:00−22ссз1110090 0.0 10399
09:00−22ююз1110088 0.0 10399
12:00−11юз129474 0.0 1039131
15:00−10ююз119758 0.0 103710
18:00−18ю2210085 0.0 103710
21:00−20ю22100100 0.0 103613
25 января, вт
вт2500:00−19ююз25100100 0.0 103554
03:00−19ю11100100 0.1 103213
06:00−16ю27100100 0.1 1030112
09:00−17ю279944 0.1 1028103
12:00−11ю389121 0.0 1026220
15:00−10ю399330 0.0 1023308
18:00−13ю3109755 0.0 1021185
21:00−11ю31095100 0.0 1020285
26 января, ср
ср2600:00−11ю3995100 0.0 1019278
03:00−12ю399694 0.0 1018272
06:00−15ю269873 0.0 1018102
09:00−18ю269965 0.0 1018103
12:00−12ююз259386 0.0 1018199
15:00−11ююз249493 0.1 1018238
18:00−13ююз129875 0.1 101847
21:00−13ю119784 0.3 101728